Wind_Speed
3 4 8 14 15 3 3 5 6 13 12 4 24 19 14 25 26 35 41 39 31 38 34 32 32 24 17 16 18 20 23 25 32 39 44 49 51 51 52 51 49 48 46 45
4 7 17 3 5 8 7 8 15 8 12 3 13 21 21 19 27 30 35 35 27 31 29 30 24 21 19 17 17 20 21 25 29 36 42 48 50 52 52 52 52 50 49 48
8 6 3 6 4 7 4 6 10 10 7 6 8 8 4 7 12 22 28 25 27 26 21 22 24 23 23 21 16 18 21 24 29 34 39 45 49 48 51 55 54 53 51 49
6 3 6 4 6 7 7 10 10 6 5 4 6 13 5 7 9 8 10 11 10 11 22 31 35 33 29 26 21 18 20 23 28 34 40 44 46 48 50 52 50 51 51 51
7 6 4 4 8 8 10 3 3 2 3 4 1 3 5 3 7 7 6 7 11 16 26 36 39 39 35 28 23 19 22 21 25 31 36 39 44 45 45 45 47 50 51 52
6 2 5 7 4 6 4 3 5 4 2 4 8 7 2 4 5 1 3 28 29 23 28 31 29 33 36 33 25 18 16 19 19 25 32 36 38 41 43 43 42 43 49 51
1 5 2 3 1 1 3 4 4 3 1 8 1 2 7 5 10 5 8 22 15 28 30 31 29 31 32 34 33 27 22 16 13 17 23 29 34 37 39 40 39 40 42 47
3 16 7 5 7 7 7 9 7 7 6 9 2 7 13 8 6 14 15 17 27 30 28 29 31 31 31 30 28 28 26 24 21 17 18 22 28 35 37 36 35 36 37 38
5 8 1 5 5 6 3 6 4 1 2 1 7 12 14 8 7 17 25 33 33 33 34 32 32 33 32 31 31 28 24 21 20 18 18 19 22 27 31 33 32 34 35 36
2 8 4 3 1 5 7 1 1 2 3 13 6 14 14 13 12 13 16 21 23 29 32 31 30 31 33 32 31 28 27 26 24 22 18 16 20 25 28 29 27 29 32 35
3 7 11 2 7 8 2 4 4 3 5 11 10 7 8 8 9 9 9 13 18 23 27 28 28 27 28 32 33 32 29 29 25 24 24 24 20 20 24 29 27 28 32 35
5 4 6 11 7 1 2 7 7 6 7 5 8 9 4 12 11 11 10 13 19 21 24 27 29 30 30 32 34 35 36 35 32 28 26 25 25 24 21 24 26 26 31 34
1 3 6 5 3 3 2 1 5 4 4 13 11 4 5 10 11 14 11 14 16 19 26 27 30 33 34 34 36 35 35 35 35 34 32 28 27 28 25 25 24 24 28 31
2 4 13 15 8 3 8 15 6 6 7 11 11 12 10 7 11 12 12 12 15 22 27 22 25 28 29 31 33 36 35 34 34 32 33 33 31 29 29 29 26 27 27 29
3 8 8 12 15 6 8 10 14 15 16 10 16 19 21 2 3 7 13 13 17 20 23 22 21 27 25 28 30 31 34 36 34 34 32 33 34 33 34 31 31 30 31 31
2 8 3 7 8 8 14 16 19 20 18 15 18 22 5 3 3 6 12 8 14 24 27 28 25 26 28 29 29 32 34 36 38 38 35 35 33 35 34 36 35 34 35 34
3 2 3 19 10 7 10 17 15 14 17 13 16 3 2 2 3 8 9 4 14 24 26 28 25 27 29 29 29 30 31 33 35 37 40 41 41 37 36 35 36 37 35 36
7 6 4 11 4 20 6 3 1 6 2 4 4 2 5 8 8 11 10 9 20 24 28 29 28 30 31 31 30 33 32 31 34 38 41 42 45 45 41 38 37 35 36 34
16 11 5 8 11 12 13 5 4 4 4 6 6 3 6 9 7 17 12 14 21 26 29 30 30 33 37 36 35 34 34 34 37 39 41 43 45 47 47 45 43 42 39 36
6 13 10 2 4 6 2 1 1 4 4 7 8 5 8 7 2 10 18 16 23 28 30 33 34 36 40 42 41 41 41 42 44 45 46 47 47 49 49 49 49 46 43 40
3 2 11 11 8 6 6 4 5 5 5 12 12 16 17 6 18 27 24 26 32 34 34 34 34 40 44 44 44 46 47 48 48 48 48 50 53 52 53 54 53 53 50 45
4 3 3 3 1 7 5 2 5 5 15 19 18 19 20 24 25 28 30 32 36 37 38 38 42 46 48 47 48 51 54 54 52 53 56 57 55 57 58 57 57 54 52 47
3 5 4 9 6 3 6 13 33 32 27 32 25 30 24 23 26 27 29 34 36 38 40 44 45 48 49 51 50 52 58 55 57 59 62 64 64 62 59 60 59 56 52 51
5 9 8 11 12 15 30 35 33 33 33 32 29 25 22 19 23 26 32 36 37 42 42 41 44 49 55 57 53 49 55 53 55 61 65 64 62 63 62 59 58 55 52 48
11 4 6 12 14 22 30 34 38 33 29 25 25 20 18 21 26 26 33 37 40 43 45 43 43 43 52 55 58 54 52 51 55 56 55 53 53 53 52 52 51 48 47 41
18 17 10 14 23 21 29 34 24 18 17 19 21 23 22 22 27 30 35 37 41 45 48 51 51 47 51 53 54 51 47 45 47 49 47 44 43 44 44 43 49 45 41 37
Wind_Direction
145 115 211 219 206 130 235 231 250 266 273 293 284 280 272 277 268 273 278 279 280 293 311 316 322 328 329 320 296 277 265 256 243 236 231 231 233 233 233 233 232 232 231 230
61 210 222 173 165 224 247 277 270 277 266 178 272 286 285 261 266 262 267 280 293 302 324 329 340 337 334 325 311 295 267 253 242 236 235 232 232 232 233 233 231 228 228 228
193 219 141 181 205 243 214 228 268 260 325 253 308 269 220 263 249 272 269 283 295 308 332 351 348 344 336 326 307 295 279 260 251 242 233 231 233 235 234 232 229 228 226 227
229 270 190 157 212 174 259 232 251 276 353 276 28 302 205 243 271 263 321 307 351 13 12 11 6 0 342 331 305 266 273 269 259 253 245 236 233 233 236 235 233 230 227 227
249 171 167 171 218 155 227 189 249 153 182 328 28 307 277 198 251 291 302 24 28 20 29 17 5 2 359 348 335 297 275 260 260 253 252 247 243 238 238 236 234 230 228 228
247 313 190 220 218 198 101 87 46 57 87 285 212 191 25 171 197 257 302 338 341 357 15 11 8 6 5 2 358 346 325 296 268 261 260 256 251 249 243 237 235 232 230 229
228 227 251 182 167 33 112 73 318 324 26 230 182 230 238 277 287 8 313 322 20 7 11 9 6 8 12 11 18 12 8 354 314 288 273 268 262 256 253 251 244 238 232 230
212 283 186 168 206 201 187 169 187 218 235 262 165 246 267 209 13 319 353 61 21 21 21 23 24 20 18 19 26 26 26 18 2 339 307 289 278 271 264 257 252 249 245 242
195 263 197 210 163 158 170 195 234 285 60 281 256 272 296 319 66 46 39 34 24 23 23 25 25 25 22 24 25 22 19 17 9 358 340 320 297 283 275 267 261 257 254 251
290 302 188 306 117 228 185 173 177 303 213 243 220 253 258 301 71 39 27 22 20 18 16 20 19 18 15 18 19 22 25 19 10 357 344 329 313 298 284 277 269 264 260 255
238 205 261 102 197 206 167 244 237 286 214 248 252 233 237 94 93 85 48 32 26 20 11 8 8 9 9 9 10 10 9 7 8 0 355 340 323 306 291 282 276 269 262 258
224 213 201 235 242 236 241 249 211 227 232 252 249 246 358 104 93 82 67 44 26 12 6 5 2 4 5 4 3 5 5 5 4 358 354 352 340 320 306 300 293 285 276 267
136 225 281 272 322 20 154 289 254 246 185 254 262 261 123 53 43 35 42 33 28 22 13 3 -0 360 360 360 358 356 355 354 358 357 356 352 348 349 333 310 296 289 286 278
16 227 255 256 257 314 276 274 247 244 263 273 259 283 284 2 350 3 3 358 6 1 360 356 351 357 350 350 355 351 351 350 346 347 347 348 351 351 345 339 319 299 290 283
206 259 256 267 273 266 257 274 277 271 269 265 283 284 282 112 318 330 330 334 354 351 351 354 342 348 345 344 345 343 343 344 343 342 340 338 334 337 341 340 341 332 307 291
223 268 234 264 264 256 277 275 267 272 278 268 260 261 116 178 281 318 330 331 345 342 340 339 335 337 339 340 338 333 334 337 339 340 338 335 332 333 332 333 335 336 331 310
259 284 247 274 291 319 269 249 260 261 260 265 262 267 168 258 256 283 314 291 327 329 327 329 325 326 326 328 328 329 329 329 328 329 332 335 335 329 330 327 326 326 323 325
241 247 261 275 19 268 273 59 220 242 54 129 103 177 210 238 264 294 292 277 319 321 319 318 317 316 317 317 318 318 320 324 328 328 326 327 330 330 326 325 320 316 313 311
220 237 255 251 245 281 290 238 198 194 253 183 168 222 269 283 279 276 230 270 311 318 316 312 310 309 311 310 312 311 311 313 317 316 318 320 322 323 324 323 320 317 310 301
209 226 237 113 223 222 245 159 139 107 275 216 197 228 258 279 237 266 277 281 315 314 312 309 307 306 309 310 309 308 307 307 309 310 310 311 313 314 314 315 317 315 310 301
1 4 224 233 245 286 230 234 141 93 275 200 228 268 250 214 246 276 285 286 308 310 310 310 306 306 308 308 306 303 303 302 305 304 302 304 306 307 306 307 308 310 310 307
201 178 202 59 15 275 188 117 151 225 294 290 285 285 282 290 282 277 287 288 302 305 308 308 308 307 306 305 305 304 303 306 304 302 301 300 298 298 299 299 299 302 303 300
285 191 204 195 211 228 209 276 291 286 282 286 285 302 303 292 283 290 284 293 299 304 307 308 307 306 305 305 305 303 302 303 302 300 299 297 297 295 293 294 293 295 296 295
249 214 243 264 253 261 275 278 279 286 286 289 295 301 296 284 282 287 295 300 305 307 307 308 306 304 304 304 303 298 298 298 296 296 296 297 296 295 293 291 290 290 289 287
238 174 245 254 258 267 268 264 271 281 287 287 290 289 289 293 296 302 302 306 308 308 309 308 304 302 300 302 300 299 297 296 295 295 294 293 294 295 294 291 287 285 280 276
244 249 242 255 260 256 266 272 281 284 277 277 284 289 297 304 306 308 306 309 310 310 311 309 309 307 306 305 303 302 301 298 296 294 293 292 292 292 290 289 289 280 273 268
Height
1526 1532 1534 1522 1522 1523 1523 1527 1529 1514 1506 1508 1495 1492 1491 1486 1481 1471 1463 1458 1459 1458 1455 1456 1456 1454 1452 1450 1449 1448 1447 1448 1449 1452 1454 1459 1461 1467 1471 1476 1482 1487 1492 1498
1529 1530 1515 1515 1518 1521 1524 1526 1520 1511 1501 1507 1497 1487 1480 1473 1465 1462 1457 1454 1458 1454 1452 1451 1451 1450 1448 1445 1442 1440 1438 1437 1436 1437 1441 1445 1449 1454 1461 1466 1470 1475 1482 1488
1519 1513 1512 1515 1519 1521 1524 1523 1512 1514 1508 1502 1496 1480 1476 1461 1457 1455 1449 1456 1457 1457 1452 1450 1448 1445 1440 1439 1438 1435 1434 1433 1433 1432 1432 1435 1441 1445 1450 1452 1459 1465 1471 1477
1516 1508 1510 1515 1514 1517 1521 1507 1508 1511 1514 1513 1501 1478 1474 1458 1457 1449 1453 1453 1456 1458 1454 1449 1444 1437 1438 1433 1429 1427 1428 1428 1431 1432 1431 1427 1425 1430 1435 1441 1452 1458 1464 1467
1506 1507 1509 1510 1505 1504 1504 1501 1504 1506 1513 1512 1506 1513 1471 1462 1457 1454 1452 1452 1452 1452 1448 1443 1444 1445 1438 1430 1425 1423 1422 1420 1423 1425 1427 1430 1430 1425 1427 1432 1439 1447 1454 1460
1505 1503 1502 1500 1498 1500 1500 1502 1510 1515 1513 1517 1495 1498 1465 1461 1450 1450 1448 1448 1449 1447 1448 1446 1446 1441 1436 1431 1423 1420 1418 1421 1419 1422 1427 1430 1430 1431 1429 1427 1430 1436 1444 1451
1501 1501 1494 1496 1499 1502 1501 1508 1521 1522 1532 1506 1496 1500 1462 1449 1445 1451 1452 1452 1457 1456 1452 1449 1443 1436 1433 1431 1424 1419 1419 1419 1420 1422 1424 1428 1430 1431 1432 1431 1430 1431 1434 1440
1505 1493 1493 1491 1493 1493 1503 1501 1509 1512 1510 1483 1509 1483 1442 1445 1448 1452 1452 1457 1457 1455 1452 1451 1447 1442 1435 1430 1426 1426 1423 1423 1423 1423 1425 1426 1430 1433 1433 1429 1427 1428 1430 1434
1506 1495 1484 1486 1484 1488 1497 1500 1487 1493 1500 1496 1472 1465 1443 1441 1452 1457 1461 1458 1459 1457 1454 1450 1447 1446 1445 1437 1432 1427 1427 1424 1422 1422 1423 1425 1426 1428 1428 1427 1425 1426 1429 1430
1491 1494 1481 1479 1483 1482 1483 1481 1491 1498 1495 1481 1469 1461 1452 1441 1460 1466 1464 1465 1465 1462 1458 1452 1449 1447 1450 1442 1437 1433 1430 1428 1424 1423 1420 1420 1422 1423 1424 1423 1420 1419 1422 1425
1491 1490 1481 1480 1481 1480 1486 1484 1480 1481 1478 1463 1466 1455 1447 1458 1464 1466 1471 1467 1465 1463 1464 1458 1453 1448 1446 1443 1438 1435 1430 1431 1424 1423 1421 1419 1417 1418 1419 1418 1413 1412 1415 1416
1486 1487 1482 1477 1470 1470 1471 1471 1469 1476 1469 1464 1453 1450 1446 1459 1462 1465 1468 1466 1462 1463 1462 1459 1455 1450 1443 1437 1434 1435 1432 1429 1426 1426 1420 1416 1415 1414 1412 1410 1407 1403 1405 1408
1484 1481 1476 1470 1469 1472 1470 1471 1470 1467 1469 1460 1459 1449 1448 1454 1456 1458 1463 1463 1461 1461 1459 1456 1451 1447 1442 1437 1434 1432 1433 1429 1424 1421 1419 1417 1414 1410 1407 1402 1399 1394 1395 1396
1485 1481 1474 1465 1463 1467 1471 1472 1471 1471 1460 1454 1452 1447 1448 1459 1461 1461 1460 1461 1457 1454 1454 1454 1452 1444 1444 1440 1432 1432 1428 1427 1425 1420 1417 1414 1413 1410 1402 1398 1393 1388 1388 1387
1481 1474 1474 1470 1471 1472 1474 1475 1473 1474 1467 1464 1455 1453 1446 1460 1463 1460 1459 1457 1453 1453 1453 1453 1447 1444 1444 1439 1432 1431 1428 1425 1423 1417 1413 1410 1407 1402 1398 1394 1387 1382 1381 1380
1481 1470 1476 1474 1468 1472 1467 1464 1459 1457 1455 1453 1450 1442 1457 1459 1460 1458 1459 1455 1453 1451 1450 1447 1444 1442 1438 1436 1432 1429 1426 1422 1418 1413 1411 1409 1401 1396 1391 1386 1380 1377 1376 1373
1482 1475 1474 1461 1464 1469 1466 1455 1452 1449 1444 1445 1445 1455 1458 1459 1458 1457 1455 1453 1451 1450 1448 1445 1441 1437 1435 1432 1429 1425 1421 1418 1415 1411 1404 1400 1395 1389 1384 1379 1376 1376 1373 1369
1476 1476 1476 1463 1484 1465 1443 1447 1445 1444 1450 1454 1456 1458 1457 1454 1452 1452 1451 1450 1449 1448 1444 1441 1437 1434 1431 1428 1424 1420 1417 1413 1408 1403 1398 1394 1389 1383 1378 1374 1373 1371 1368 1365
1465 1467 1473 1468 1466 1448 1442 1442 1446 1446 1449 1451 1452 1451 1451 1450 1450 1447 1446 1446 1445 1442 1439 1435 1432 1428 1424 1420 1417 1412 1408 1405 1402 1399 1394 1389 1385 1379 1373 1369 1367 1364 1362 1358
1459 1463 1465 1484 1475 1490 1446 1445 1445 1447 1457 1447 1447 1448 1448 1448 1453 1441 1440 1440 1438 1437 1434 1429 1425 1421 1416 1411 1408 1403 1399 1395 1392 1388 1384 1380 1378 1373 1367 1362 1359 1358 1357 1349
1486 1484 1460 1458 1455 1464 1448 1444 1445 1466 1456 1441 1444 1443 1442 1444 1438 1434 1434 1433 1430 1428 1425 1422 1418 1413 1408 1403 1399 1393 1388 1384 1380 1376 1372 1368 1364 1360 1356 1350 1347 1342 1337 1330
1465 1484 1501 1506 1491 1469 1441 1445 1451 1445 1438 1437 1436 1435 1434 1432 1430 1428 1427 1425 1422 1419 1415 1413 1409 1403 1399 1395 1389 1382 1376 1372 1366 1362 1356 1353 1351 1347 1342 1339 1336 1331 1326 1322
1468 1459 1467 1464 1457 1439 1438 1437 1435 1434 1433 1430 1429 1427 1426 1426 1423 1421 1419 1417 1414 1412 1407 1404 1399 1391 1387 1383 1379 1370 1363 1359 1352 1346 1340 1336 1332 1329 1327 1323 1319 1315 1312 1306
1452 1446 1447 1444 1436 1436 1432 1429 1428 1427 1424 1423 1422 1420 1419 1418 1416 1415 1412 1408 1406 1402 1398 1394 1388 1381 1373 1370 1365 1360 1353 1347 1340 1331 1324 1318 1313 1308 1306 1304 1301 1298 1295 1291
1440 1441 1439 1432 1430 1429 1424 1421 1419 1418 1418 1417 1415 1414 1413 1412 1410 1408 1404 1401 1396 1392 1387 1383 1377 1371 1363 1357 1349 1345 1339 1333 1324 1317 1309 1303 1297 1292 1287 1285 1283 1282 1279 1280
1427 1428 1431 1421 1418 1420 1413 1413 1413 1412 1411 1410 1409 1408 1407 1406 1403 1400 1396 1392 1388 1381 1376 1370 1364 1358 1349 1341 1333 1329 1324 1318 1310 1301 1296 1291 1285 1280 1275 1271 1264 1265 1264 1266